TimeCDT,TemperatureF,Dew PointF,Humidity,Sea Level PressureIn,VisibilityMPH,Wind Direction,Wind SpeedMPH,Gust SpeedMPH,PrecipitationIn,Events,Conditions,WindDirDegrees,DateUTC
12:56 AM,33.1,30.0,89,30.07,10.0,West,5.8,-,N/A,,Clear,280,2013-10-21 05:56:00
1:56 AM,33.1,30.0,89,30.08,10.0,West,4.6,-,N/A,,Clear,260,2013-10-21 06:56:00
2:56 AM,33.1,28.9,85,30.09,10.0,West,6.9,-,N/A,,Clear,260,2013-10-21 07:56:00
3:56 AM,30.9,28.9,92,30.09,10.0,West,5.8,-,N/A,,Clear,270,2013-10-21 08:56:00
4:56 AM,30.0,28.0,92,30.10,10.0,West,6.9,-,N/A,,Clear,270,2013-10-21 09:56:00
5:56 AM,30.9,28.9,92,30.10,10.0,Calm,Calm,-,N/A,,Overcast,0,2013-10-21 10:56:00
6:56 AM,32.0,28.9,88,30.11,10.0,West,3.5,-,N/A,,Overcast,270,2013-10-21 11:56:00
7:56 AM,32.0,28.9,88,30.10,10.0,Calm,Calm,-,N/A,,Mostly Cloudy,0,2013-10-21 12:56:00
8:56 AM,33.1,30.9,92,30.11,10.0,Calm,Calm,-,N/A,,Overcast,0,2013-10-21 13:56:00
9:56 AM,37.0,33.1,86,30.11,10.0,Calm,Calm,-,N/A,,Overcast,0,2013-10-21 14:56:00
10:56 AM,39.9,35.1,83,30.10,10.0,Calm,Calm,-,N/A,,Overcast,0,2013-10-21 15:56:00
11:56 AM,46.0,32.0,58,30.08,10.0,Variable,4.6,-,N/A,,Scattered Clouds,0,2013-10-21 16:56:00
12:56 PM,46.9,32.0,56,30.07,10.0,WSW,4.6,-,N/A,,Scattered Clouds,240,2013-10-21 17:56:00
1:56 PM,51.1,30.9,46,30.03,10.0,West,6.9,-,N/A,,Mostly Cloudy,280,2013-10-21 18:56:00
2:56 PM,54.0,30.0,40,29.99,10.0,West,9.2,-,N/A,,Clear,280,2013-10-21 19:56:00
3:56 PM,53.1,28.9,40,29.99,10.0,WNW,6.9,-,N/A,,Overcast,290,2013-10-21 20:56:00
4:56 PM,53.1,30.9,43,29.99,10.0,WNW,6.9,-,N/A,,Overcast,290,2013-10-21 21:56:00
5:56 PM,52.0,32.0,47,29.97,10.0,NNE,6.9,-,0.00,,Overcast,30,2013-10-21 22:56:00
6:56 PM,48.9,34.0,56,29.97,10.0,NNE,5.8,-,N/A,,Overcast,30,2013-10-21 23:56:00
7:56 PM,46.9,35.1,63,29.98,10.0,NNE,4.6,-,N/A,,Overcast,30,2013-10-22 00:56:00
8:56 PM,45.0,37.9,76,29.97,10.0,East,5.8,-,0.00,,Overcast,80,2013-10-22 01:56:00
9:56 PM,41.0,37.0,86,29.97,10.0,South,5.8,-,0.00,,Scattered Clouds,170,2013-10-22 02:56:00
10:56 PM,42.1,37.9,85,29.97,10.0,ENE,3.5,-,N/A,,Scattered Clouds,60,2013-10-22 03:56:00
11:56 PM,41.0,37.9,89,29.94,10.0,South,3.5,-,N/A,,Overcast,180,2013-10-22 04:56:00